Find OneWeb SL0704

NORAD ID: 61609 Int'l Des: 2024-188 Owner: ONEWEBE Country: UK Constellation: oneweb operational
LEOCIRCULARPOLARONEWEB_TYPE

当前视图

正在加载3D地球...

About OneWeb SL0704

OneWeb SL0704 (NORAD 61609) is a oneweb constellation satellite launched Oct 20, 2024 by ONEWEBE of UK. It operates in LEO, CIRCULAR, POLAR, ONEWEB_TYPE orbit with a mass of 148.00 kg.

关于 OneWeb SL0704

正在加载描述...

即将过境

Passes for default location (London). Set your location on the main map for personalized predictions.

高度历史

Loading altitude history...

两行轨道根数

1 61609U 24188R 26169.06208244 .00000306 00000-0 84119-3 0 9990
2 61609 87.8839 36.0808 0002329 110.4640 249.6737 13.10378435 83402
Epoch: Jun 18, 2026 • Age: 15 hours

当前状态

高度 1231.8 km
速度 7.25 km/s
星下点 65.54°N, 113.59°W
发射日期 Oct 20, 2024
运行时间 1.6 years
类型 internet

技术详情

分类 Payload
质量 148.00 kg
干质量 140.00 kg
总质量 148.00 kg
长度 1.30 m
直径 1.00 m
跨度 5.00 m
形状 Trapezoid+2 pan
制造商 ONEWUS
平台类型 ARROW
阶段状态 In Orbit
所有者/国家 ONEWEBE/UK

Most Searched